Malaga, Spain

4:15 AM CEST on May 24, 2018 (GMT +0200)
Malaga

Weather History for LEMG - May, 2018

Change the Weather History Date:

Wednesday, May 16, 2018

  Actual Average Record
Temperature  
Mean Temperature 62 °F -  
Max Temperature 70 °F 78 °F 78 °F (2002)
Min Temperature 53 °F 60 °F 53 °F (2004)
Degree Days  
Heating Degree Days 4    
Growing Degree Days 12 (Base 50)    
Moisture  
Dew Point 50 °F    
Average Humidity 61    
Maximum Humidity 88    
Minimum Humidity 32    
Precipitation  
Precipitation 0.00 in 0.02 in - ()
Sea Level Pressure  
Sea Level Pressure 29.96 in    
Wind  
Wind Speed 5 mph ()    
Max Wind Speed 10 mph    
Max Gust Speed 22 mph    
Visibility 9.4 miles    
Events      
Averages and records for this station are not official NWS values.
T = Trace of Precipitation, MM = Missing Value Source: Averaged Metar Reports

Daily Weather History Graph

Daily Weather History Graph

Search for Another Location

Airport or City:

Astronomy

May. 16, 2018 Rise Set
Actual Time 7:10 AM CEST 9:19 PM CEST
Civil Twilight 6:41 AM CEST 9:48 PM CEST
Nautical Twilight 6:05 AM CEST 10:23 PM CEST
Astronomical Twilight 5:27 AM CEST 11:01 PM CEST
Moon 8:09 AM CEST (5/16) 10:31 PM CEST (5/16)
Length of Visible Light 15h 06m
Length of Day
14h 09m
New Moon, 1% of the Moon is Illuminated
May 16
New Moon
May 22
First Quarter
May 29
Full
Jun 6
Last Quarter
Jun 13
New

Hourly Weather History & Observations

Time (CEST) Temp. Dew Point Humidity Pressure Visibility Wind Dir Wind Speed Gust Speed Precip Events Conditions
12:00 AM 62 °F 57 °F 79% 30.02 in - SE 2.3 mph - -  
12:00 AM 62.6 °F 57.2 °F 82% 30.01 in - SSE 1.2 mph - N/A   Clear
12:30 AM 60.8 °F 57.2 °F 88% 30.01 in - Variable 1.2 mph - N/A   Clear
1:00 AM 60.8 °F 57.2 °F 88% 30.01 in - Variable 1.2 mph - N/A   Clear
1:30 AM 60.8 °F 57.2 °F 88% 30.01 in - Calm Calm - N/A   Clear
2:00 AM 59 °F 55 °F 84% 30.01 in 9 mi Calm Calm - -   Clear
2:00 AM 60.8 °F 55.4 °F 82% 30.01 in - Calm Calm - N/A   Clear
2:30 AM 55.4 °F 50.0 °F 82% 30.01 in 6.2 mi WNW 3.5 mph - N/A   Scattered Clouds
3:00 AM 55.4 °F 48.2 °F 77% 29.98 in 6.2 mi WNW 3.5 mph - N/A   Scattered Clouds
3:30 AM 57.2 °F 46.4 °F 67% 29.98 in 6.2 mi WNW 4.6 mph - N/A   Partly Cloudy
4:00 AM 57.2 °F 48.2 °F 72% 29.98 in 6.2 mi WNW 6.9 mph - N/A   Partly Cloudy
4:30 AM 53.6 °F 44.6 °F 72% 29.98 in 6.2 mi WNW 4.6 mph - N/A   Partly Cloudy
5:00 AM 57 °F 46 °F 56% 29.98 in 9 mi WNW 4.6 mph - -   Clear
5:00 AM 53.6 °F 44.6 °F 72% 29.98 in - WNW 3.5 mph - N/A   Clear
5:30 AM 55.4 °F 46.4 °F 72% 29.98 in - WNW 5.8 mph - N/A   Clear
6:00 AM 55 °F 45 °F 59% 29.98 in - WNW 5.8 mph - -  
6:00 AM 51.8 °F 44.6 °F 76% 29.98 in - WNW 5.8 mph - N/A   Clear
6:30 AM 51.8 °F 44.6 °F 76% 29.98 in - WNW 6.9 mph - N/A   Clear
7:00 AM 53.6 °F 44.6 °F 72% 29.98 in - West 8.1 mph - N/A   Clear
7:30 AM 53.6 °F 44.6 °F 72% 29.98 in - WNW 9.2 mph - N/A   Clear
8:00 AM 56 °F 46 °F 61% 29.98 in 19 mi WNW 8.1 mph - -   Clear
8:00 AM 55.4 °F 46.4 °F 72% 29.98 in - WNW 8.1 mph - N/A   Clear
8:30 AM 57.2 °F 46.4 °F 67% 29.98 in - WNW 8.1 mph - N/A   Clear
9:00 AM 60 °F 47 °F 51% 29.98 in 19 mi WNW 8.1 mph - -   Clear
9:00 AM 59.0 °F 46.4 °F 63% 29.98 in - WNW 8.1 mph - N/A   Clear
9:30 AM 62.6 °F 48.2 °F 59% 29.98 in - WNW 5.8 mph - N/A   Clear
10:00 AM 65 °F 51 °F 50% 29.97 in - NW 2.3 mph - -  
10:00 AM 66.2 °F 50.0 °F 56% 29.98 in - Variable 1.2 mph - N/A   Clear
10:30 AM 66.2 °F 50.0 °F 56% 29.98 in - ENE 5.8 mph - N/A   Clear
11:00 AM 68.0 °F 50.0 °F 52% 29.98 in - East 9.2 mph 21.9 mph N/A   Clear
11:30 AM 68.0 °F 51.8 °F 56% 29.98 in - East 9.2 mph - N/A   Clear
12:00 PM 69 °F 54 °F 48% 29.98 in - ESE 9.2 mph - -  
12:00 PM 68.0 °F 51.8 °F 56% 29.98 in - ESE 9.2 mph - N/A   Clear
12:30 PM 69.8 °F 50.0 °F 49% 29.98 in - ESE 5.8 mph - N/A   Clear
1:00 PM 70 °F 46 °F 32% 29.97 in - East 9.2 mph - -  
1:00 PM 69.8 °F 44.6 °F 40% 29.98 in - East 8.1 mph - N/A   Clear
1:30 PM 69.8 °F 44.6 °F 40% 29.95 in - ESE 8.1 mph - N/A   Clear
2:00 PM 69.8 °F 48.2 °F 46% 29.95 in - ESE 9.2 mph - N/A   Clear
2:30 PM 69.8 °F 50.0 °F 49% 29.95 in - SE 9.2 mph - N/A   Clear
3:00 PM 70 °F 53 °F 44% 29.94 in 19 mi ESE 10.4 mph - -   Scattered Clouds
3:00 PM 69.8 °F 50.0 °F 49% 29.95 in 6.2 mi SE 10.4 mph - N/A   Partly Cloudy
3:30 PM 69.8 °F 51.8 °F 53% 29.92 in 6.2 mi SE 8.1 mph - N/A   Partly Cloudy
4:00 PM 70 °F 55 °F 50% 29.93 in - SE 9.2 mph - -  
4:00 PM 69.8 °F 53.6 °F 56% 29.92 in 6.2 mi SE 8.1 mph - N/A   Partly Cloudy
4:30 PM 68.0 °F 53.6 °F 60% 29.92 in 6.2 mi SSE 9.2 mph - N/A   Partly Cloudy
5:00 PM 70 °F 56 °F 50% 29.92 in 19 mi SE 10.4 mph - -   Scattered Clouds
5:00 PM 68.0 °F 53.6 °F 60% 29.92 in 6.2 mi SSE 10.4 mph - N/A   Partly Cloudy
5:30 PM 68.0 °F 53.6 °F 60% 29.92 in 6.2 mi SE 10.4 mph - N/A   Partly Cloudy
6:00 PM 69 °F 55 °F 51% 29.92 in - SE 8.1 mph - -  
6:00 PM 68.0 °F 53.6 °F 60% 29.92 in 6.2 mi SSE 8.1 mph - N/A   Partly Cloudy
6:30 PM 68.0 °F 53.6 °F 60% 29.92 in - SE 5.8 mph - N/A   Clear
7:00 PM 69 °F 55 °F 52% 29.92 in - SE 6.9 mph - -  
7:00 PM 68.0 °F 53.6 °F 60% 29.92 in - SE 6.9 mph - N/A   Clear
7:30 PM 66.2 °F 53.6 °F 64% 29.92 in - SE 5.8 mph - N/A   Clear
8:00 PM 66.2 °F 51.8 °F 60% 29.89 in - ESE 4.6 mph - N/A   Clear
8:30 PM 66.2 °F 51.8 °F 60% 29.89 in - Variable 2.3 mph - N/A   Clear
9:00 PM 66.2 °F 50.0 °F 56% 29.89 in - Variable 2.3 mph - N/A   Clear
9:30 PM 64.4 °F 50.0 °F 59% 29.89 in - Variable 1.2 mph - N/A   Clear
10:00 PM 64 °F 50 °F 51% 29.92 in - SSE 2.3 mph - -  
10:00 PM 64.4 °F 50.0 °F 59% 29.92 in - Variable 1.2 mph - N/A   Clear
10:30 PM 64.4 °F 48.2 °F 56% 29.92 in - Variable 2.3 mph - N/A   Clear
11:00 PM 64.4 °F 48.2 °F 56% 29.92 in - SE 3.5 mph - N/A   Clear
11:30 PM 64.4 °F 48.2 °F 56% 29.95 in - Variable 1.2 mph - N/A   Clear